User: anonymous   Login
Location: Unspecified
(0.0000°N, 0.0000°E)
Time: 06:10:49
(UTC+00:00)
Language:

Kitsat-3 - Orbit

View from above orbital plane
View from above orbital plane
View from above satellite
View from above satellite

Ground track
Ground track

The orbit data is extracted from the following two-line orbital elements,

1 25756U 99029A   17296.37264827 +.00000040 +00000-0 +20661-4 0  9991
2 25756 098.4106 216.5070 0013182 203.1647 156.8956 14.53687039976024
Epoch (UTC): 23 October 2017 08:56:36
Eccentricity: 0.0013182
inclination: 98.4106°
perigee height: 704 km
apogee height: 723 km
right ascension of ascending node: 216.5070°
argument of perigee: 203.1647°
revolutions per day: 14.53687039
mean anomaly at epoch: 156.8956°
orbit number at epoch: 97602

The dashed part of the orbit path shows where the satellite is in the earth's shadow,  

DLR